Tracking 34085 objects as of 13-May-2026
HD Live streaming from Space Station
objects crossing your sky now

STARLINK-37159

Track STARLINK-37159 now!
10-day predictions
STARLINK-37159 is classified as:


NORAD ID: 68284
Int'l Code: 2026-055Y
Perigee: 469.0 km
Apogee: 470.7 km
Inclination: 53.2 °
Period: 93.8 minutes
Semi major axis: 6840 km
RCS: Unknown
Launch date: March 19, 2026
Source: United States (US)
Launch site: AIR FORCE EASTERN TEST RANGE (AFETR)
Your satellite tracking list
Your tracking list is empty




NASA's NSSDC Master Catalog

Two Line Element Set (TLE):
1 68284U 26055Y   26132.98138878  .00010745  00000-0  32870-3 0  9992
2 68284  53.1590  22.1311 0001268  90.4259 269.6889 15.34397732  9752
Source of the keplerian elements: AFSPC